Погода в Туле

Узбекистан     40°06′47″N   71°04′47″E
темп.,
°C
ветер,
м/с
пор.,
м/с
влажн.,
%
обл.,
%
осадки,
мм/ч
давл.,
гПа
погр.,
м
27 февраля, сб
сб2723:00−7ссз11523 0.0 1031169
02:00−7юз115357 0.0 1029216
05:00−6ююз014978 0.0 1030190
08:00−6сз1146100 0.0 1029239
11:00−5ссз2140100 0.0 1028472
14:00−3с213297 0.0 1027623
17:00−3ссв113398 0.0 1030559
20:00−5всв115331 0.0 103526
28 февраля, вс
вс2823:00−5с115516 0.0 103587
02:00−6ссв12520 0.0 1034168
05:00−6св11480 0.0 103293
08:00−5ссв11460 0.0 1030128
11:00−1ссв11380 0.0 1025426
14:00+1ссв11370 0.0 1021556
17:00+2св11420 0.0 1022289
20:00−1св11560 0.0 102521
1 марта, пн
пн123:00−1всв12470 0.0 102522
02:00−2всв11450 0.0 102522
05:00−2юв11399 0.0 102522
08:00+1юв113239 0.0 102623
11:00+5ссв212531 0.0 1022279
14:00+7с102611 0.0 1021411
17:00+7с11325 0.0 1021251
20:00+2ю11480 0.0 102523
2 марта, вт
вт223:00+2ю22340 0.0 102723
02:00+1ю123767 0.0 102622
05:00+1ююв113983 0.0 102522
08:00+3ю1138100 0.0 102522
11:00+8св1125100 0.0 1022229
14:00+8с2128100 0.0 1020395
17:00+8ссз1134100 0.0 1020234
20:00+5ю1244100 0.0 102222
3 марта, ср
ср323:00+3зсз1150100 0.0 102322
02:00+2ююз015199 0.0 102222
05:000з015397 0.0 102122
08:00+4зсз114797 0.0 102122
11:00+5ссз223697 0.0 1019632
14:00+6с213595 0.0 1017851
17:00+6сз223879 0.0 1017892
20:00+5ссв1167100 0.0 102043